Year,Month,Day,Hour,Minute,Value (Times are PST for temperature in C)
2022,04,27,00,00,3.90
2022,04,27,00,01,3.90
2022,04,27,00,02,3.90
2022,04,27,00,03,3.90
2022,04,27,00,04,3.90
2022,04,27,00,05,3.90
2022,04,27,00,06,3.90
2022,04,27,00,07,3.90
2022,04,27,00,08,3.90
2022,04,27,00,09,3.90
2022,04,27,00,10,3.80
2022,04,27,00,11,3.80
2022,04,27,00,12,3.80
2022,04,27,00,13,3.80
2022,04,27,00,14,3.90
2022,04,27,00,15,3.90
2022,04,27,00,16,3.90
2022,04,27,00,17,3.90
2022,04,27,00,18,3.90
2022,04,27,00,19,3.90
2022,04,27,00,20,3.90
2022,04,27,00,21,3.90
2022,04,27,00,22,3.90
2022,04,27,00,23,3.90
2022,04,27,00,24,3.90
2022,04,27,00,25,3.90
2022,04,27,00,26,3.90
2022,04,27,00,27,3.90
2022,04,27,00,28,3.90
2022,04,27,00,29,3.90
2022,04,27,00,30,3.90
2022,04,27,00,31,3.90
2022,04,27,00,32,3.90
2022,04,27,00,33,3.90
2022,04,27,00,34,3.90
2022,04,27,00,35,3.90
2022,04,27,00,36,3.90
2022,04,27,00,37,3.90
2022,04,27,00,38,3.90
2022,04,27,00,39,3.90
2022,04,27,00,40,3.90
2022,04,27,00,41,3.90
2022,04,27,00,42,3.90
2022,04,27,00,43,3.90
2022,04,27,00,44,3.90
2022,04,27,00,45,3.90
2022,04,27,00,46,3.90
2022,04,27,00,47,3.90
2022,04,27,00,48,3.90
2022,04,27,00,49,3.90
2022,04,27,00,50,3.90
2022,04,27,00,51,3.90
2022,04,27,00,52,3.90
2022,04,27,00,53,3.90
2022,04,27,00,54,3.90
2022,04,27,00,55,3.90
2022,04,27,00,56,3.90
2022,04,27,00,57,3.90
2022,04,27,00,58,3.90
2022,04,27,00,59,3.90
2022,04,27,01,00,3.90
2022,04,27,01,01,3.90
2022,04,27,01,02,3.90
2022,04,27,01,03,3.90
2022,04,27,01,04,3.90
2022,04,27,01,05,3.90
2022,04,27,01,06,3.90
2022,04,27,01,07,3.90
2022,04,27,01,08,3.90
2022,04,27,01,09,3.90
2022,04,27,01,10,3.90
2022,04,27,01,11,3.90
2022,04,27,01,12,3.90
2022,04,27,01,13,3.90
2022,04,27,01,14,3.90
2022,04,27,01,15,3.80
2022,04,27,01,16,3.80
2022,04,27,01,17,3.80
2022,04,27,01,18,3.80
2022,04,27,01,19,3.80
2022,04,27,01,20,3.80
2022,04,27,01,21,3.80
2022,04,27,01,22,3.80
2022,04,27,01,23,3.80
2022,04,27,01,24,3.80
2022,04,27,01,25,3.80
2022,04,27,01,26,3.70
2022,04,27,01,27,3.70
2022,04,27,01,28,3.70
2022,04,27,01,29,3.70
2022,04,27,01,30,3.70
2022,04,27,01,31,3.70
2022,04,27,01,32,3.70
2022,04,27,01,33,3.60
2022,04,27,01,34,3.60
2022,04,27,01,35,3.60
2022,04,27,01,36,3.60
2022,04,27,01,37,3.60
2022,04,27,01,38,3.60
2022,04,27,01,39,3.60
2022,04,27,01,40,3.50
2022,04,27,01,41,3.50
2022,04,27,01,42,3.50
2022,04,27,01,43,3.40
2022,04,27,01,44,3.40
2022,04,27,01,45,3.40
2022,04,27,01,46,3.40
2022,04,27,01,47,3.40
2022,04,27,01,48,3.30
2022,04,27,01,49,3.30
2022,04,27,01,50,3.30
2022,04,27,01,51,3.30
2022,04,27,01,52,3.30
2022,04,27,01,53,3.30
2022,04,27,01,54,3.20
2022,04,27,01,55,3.20
2022,04,27,01,56,3.20
2022,04,27,01,57,3.20
2022,04,27,01,58,3.20
2022,04,27,01,59,3.10
2022,04,27,02,00,3.10
2022,04,27,02,01,3.10
2022,04,27,02,02,3.10
2022,04,27,02,03,3.10
2022,04,27,02,04,3.00
2022,04,27,02,05,3.00
2022,04,27,02,06,3.00
2022,04,27,02,07,3.00
2022,04,27,02,08,3.00
2022,04,27,02,09,2.90
2022,04,27,02,10,2.90
2022,04,27,02,11,2.90
2022,04,27,02,12,2.90
2022,04,27,02,13,2.90
2022,04,27,02,14,2.90
2022,04,27,02,15,2.80
2022,04,27,02,16,2.80
2022,04,27,02,17,2.80
2022,04,27,02,18,2.80
2022,04,27,02,19,2.80
2022,04,27,02,20,2.80
2022,04,27,02,21,2.80
2022,04,27,02,22,2.80
2022,04,27,02,23,2.70
2022,04,27,02,24,2.70
2022,04,27,02,25,2.70
2022,04,27,02,26,2.70
2022,04,27,02,27,2.70
2022,04,27,02,28,2.70
2022,04,27,02,29,2.70
2022,04,27,02,30,2.70
2022,04,27,02,31,2.70
2022,04,27,02,32,2.70
2022,04,27,02,33,2.60
2022,04,27,02,34,2.60
2022,04,27,02,35,2.60
2022,04,27,02,36,2.60
2022,04,27,02,37,2.60
2022,04,27,02,38,2.60
2022,04,27,02,39,2.60
2022,04,27,02,40,2.60
2022,04,27,02,41,2.60
2022,04,27,02,42,2.50
2022,04,27,02,43,2.50
2022,04,27,02,44,2.50
2022,04,27,02,45,2.50
2022,04,27,02,46,2.50
2022,04,27,02,47,2.40
2022,04,27,02,48,2.40
2022,04,27,02,49,2.40
2022,04,27,02,50,2.40
2022,04,27,02,51,2.40
2022,04,27,02,52,2.50
2022,04,27,02,53,2.50
2022,04,27,02,54,2.50
2022,04,27,02,55,2.50
2022,04,27,02,56,2.50
2022,04,27,02,57,2.50
2022,04,27,02,58,2.50
2022,04,27,02,59,2.40
2022,04,27,03,00,2.40
2022,04,27,03,01,2.40
2022,04,27,03,02,2.40
2022,04,27,03,03,2.40
2022,04,27,03,04,2.50
2022,04,27,03,05,2.50
2022,04,27,03,06,2.50
2022,04,27,03,07,2.50
2022,04,27,03,08,2.50
2022,04,27,03,09,2.50
2022,04,27,03,10,2.60
2022,04,27,03,11,2.60
2022,04,27,03,12,2.60
2022,04,27,03,13,2.60
2022,04,27,03,14,2.60
2022,04,27,03,15,2.60
2022,04,27,03,16,2.60
2022,04,27,03,17,2.60
2022,04,27,03,18,2.60
2022,04,27,03,19,2.60
2022,04,27,03,20,2.60
2022,04,27,03,21,2.60
2022,04,27,03,22,2.50
2022,04,27,03,23,2.50
2022,04,27,03,24,2.50
2022,04,27,03,25,2.50
2022,04,27,03,26,2.50
2022,04,27,03,27,2.40
2022,04,27,03,28,2.40
2022,04,27,03,29,2.40
2022,04,27,03,30,2.40
2022,04,27,03,31,2.40
2022,04,27,03,32,2.40
2022,04,27,03,33,2.40
2022,04,27,03,34,2.40
2022,04,27,03,35,2.40
2022,04,27,03,36,2.40
2022,04,27,03,37,2.40
2022,04,27,03,38,2.40
2022,04,27,03,39,2.40
2022,04,27,03,40,2.40
2022,04,27,03,41,2.30
2022,04,27,03,42,2.30
2022,04,27,03,43,2.30
2022,04,27,03,44,2.30
2022,04,27,03,45,2.30
2022,04,27,03,46,2.30
2022,04,27,03,47,2.30
2022,04,27,03,48,2.30
2022,04,27,03,49,2.30
2022,04,27,03,50,2.30
2022,04,27,03,51,2.30
2022,04,27,03,52,2.30
2022,04,27,03,53,2.30
2022,04,27,03,54,2.30
2022,04,27,03,55,2.20
2022,04,27,03,56,2.20
2022,04,27,03,57,2.20
2022,04,27,03,58,2.20
2022,04,27,03,59,2.20
2022,04,27,04,00,2.20
2022,04,27,04,01,2.20
2022,04,27,04,02,2.20
2022,04,27,04,03,2.20
2022,04,27,04,04,2.20
2022,04,27,04,05,2.20
2022,04,27,04,06,2.20
2022,04,27,04,07,2.20
2022,04,27,04,08,2.20
2022,04,27,04,09,2.20
2022,04,27,04,10,2.20
2022,04,27,04,11,2.20
2022,04,27,04,12,2.10
2022,04,27,04,13,2.10
2022,04,27,04,14,2.10
2022,04,27,04,15,2.10
2022,04,27,04,16,2.10
2022,04,27,04,17,2.10
2022,04,27,04,18,2.10
2022,04,27,04,19,2.00
2022,04,27,04,20,2.00
2022,04,27,04,21,2.00
2022,04,27,04,22,2.00
2022,04,27,04,23,1.90
2022,04,27,04,24,1.90
2022,04,27,04,25,1.90
2022,04,27,04,26,1.90
2022,04,27,04,27,1.90
2022,04,27,04,28,1.90
2022,04,27,04,29,1.90
2022,04,27,04,30,1.90
2022,04,27,04,31,1.90
2022,04,27,04,32,1.90
2022,04,27,04,33,1.90
2022,04,27,04,34,1.90
2022,04,27,04,35,1.90
2022,04,27,04,36,1.90
2022,04,27,04,37,1.90
2022,04,27,04,38,1.90
2022,04,27,04,39,1.90
2022,04,27,04,40,1.90
2022,04,27,04,41,1.90
2022,04,27,04,42,1.90
2022,04,27,04,43,1.90
2022,04,27,04,44,1.90
2022,04,27,04,45,1.90
2022,04,27,04,46,1.90
2022,04,27,04,47,1.90
2022,04,27,04,48,1.90
2022,04,27,04,49,1.90
2022,04,27,04,50,1.90
2022,04,27,04,51,1.90
2022,04,27,04,52,1.90
2022,04,27,04,53,1.90
2022,04,27,04,54,1.90
2022,04,27,04,55,1.90
2022,04,27,04,56,1.90
2022,04,27,04,57,1.90
2022,04,27,04,58,1.90
2022,04,27,04,59,1.90
2022,04,27,05,00,1.90
2022,04,27,05,01,1.90
2022,04,27,05,02,1.90
2022,04,27,05,03,1.90
2022,04,27,05,04,1.90
2022,04,27,05,05,1.90
2022,04,27,05,06,1.80
2022,04,27,05,07,1.80
2022,04,27,05,08,1.80
2022,04,27,05,09,1.80
2022,04,27,05,10,1.80
2022,04,27,05,11,1.80
2022,04,27,05,12,1.80
2022,04,27,05,13,1.80
2022,04,27,05,14,1.80
2022,04,27,05,15,1.80
2022,04,27,05,16,1.80
2022,04,27,05,17,1.80
2022,04,27,05,18,1.80
2022,04,27,05,19,1.80
2022,04,27,05,20,1.80
2022,04,27,05,21,1.90
2022,04,27,05,22,1.90
2022,04,27,05,23,1.90
2022,04,27,05,24,1.90
2022,04,27,05,25,1.90
2022,04,27,05,26,1.90
2022,04,27,05,27,1.90
2022,04,27,05,28,1.90
2022,04,27,05,29,2.00
2022,04,27,05,30,2.00
2022,04,27,05,31,2.00
2022,04,27,05,32,2.00
2022,04,27,05,33,2.00
2022,04,27,05,34,2.00
2022,04,27,05,35,2.10
2022,04,27,05,36,2.10
2022,04,27,05,37,2.10
2022,04,27,05,38,2.10
2022,04,27,05,39,2.10
2022,04,27,05,40,2.10
2022,04,27,05,41,2.10
2022,04,27,05,42,2.10
2022,04,27,05,43,2.10
2022,04,27,05,44,2.10
2022,04,27,05,45,2.10
2022,04,27,05,46,2.10
2022,04,27,05,47,2.20
2022,04,27,05,48,2.20
2022,04,27,05,49,2.30
2022,04,27,05,50,2.30
2022,04,27,05,51,2.40
2022,04,27,05,52,2.40
2022,04,27,05,53,2.50
2022,04,27,05,54,2.50
2022,04,27,05,55,2.60
2022,04,27,05,56,2.60
2022,04,27,05,57,2.70
2022,04,27,05,58,2.70
2022,04,27,05,59,2.70
2022,04,27,06,00,2.80
2022,04,27,06,01,2.80
2022,04,27,06,02,2.80
2022,04,27,06,03,2.80
2022,04,27,06,04,2.80
2022,04,27,06,05,2.80
2022,04,27,06,06,2.80
2022,04,27,06,07,2.80
2022,04,27,06,08,2.90
2022,04,27,06,09,2.90
2022,04,27,06,10,2.80
2022,04,27,06,11,2.80
2022,04,27,06,12,2.80
2022,04,27,06,13,2.80
2022,04,27,06,14,2.80
2022,04,27,06,15,2.80
2022,04,27,06,16,2.80
2022,04,27,06,17,2.80
2022,04,27,06,18,2.80
2022,04,27,06,19,2.80
2022,04,27,06,20,2.80
2022,04,27,06,21,2.80
2022,04,27,06,22,2.80
2022,04,27,06,23,2.90
2022,04,27,06,24,2.90
2022,04,27,06,25,2.90
2022,04,27,06,26,3.00
2022,04,27,06,27,3.00
2022,04,27,06,28,3.00
2022,04,27,06,29,3.00
2022,04,27,06,30,3.10
2022,04,27,06,31,3.10
2022,04,27,06,32,3.10
2022,04,27,06,33,3.10
2022,04,27,06,34,3.10
2022,04,27,06,35,3.10
2022,04,27,06,36,3.10
2022,04,27,06,37,3.10
2022,04,27,06,38,3.10
2022,04,27,06,39,3.10
2022,04,27,06,40,3.20
2022,04,27,06,41,3.20
2022,04,27,06,42,3.20
2022,04,27,06,43,3.20
2022,04,27,06,44,3.20
2022,04,27,06,45,3.20
2022,04,27,06,46,3.20
2022,04,27,06,47,3.20
2022,04,27,06,48,3.20
2022,04,27,06,49,3.30
2022,04,27,06,50,3.30
2022,04,27,06,51,3.30
2022,04,27,06,52,3.30
2022,04,27,06,53,3.30
2022,04,27,06,54,3.30
2022,04,27,06,55,3.30
2022,04,27,06,56,3.30
2022,04,27,06,57,3.30
2022,04,27,06,58,3.30
2022,04,27,06,59,3.30
2022,04,27,07,00,3.30
2022,04,27,07,01,3.40
2022,04,27,07,02,3.40
2022,04,27,07,03,3.40
2022,04,27,07,04,3.40
2022,04,27,07,05,3.40
2022,04,27,07,06,3.40
2022,04,27,07,07,3.40
2022,04,27,07,08,3.40
2022,04,27,07,09,3.40
2022,04,27,07,10,3.40
2022,04,27,07,11,3.40
2022,04,27,07,12,3.40
2022,04,27,07,13,3.40
2022,04,27,07,14,3.40
2022,04,27,07,15,3.40
2022,04,27,07,16,3.40
2022,04,27,07,17,3.40
2022,04,27,07,18,3.40
2022,04,27,07,19,3.40
2022,04,27,07,20,3.40
2022,04,27,07,21,3.40
2022,04,27,07,22,3.40
2022,04,27,07,23,3.40
2022,04,27,07,24,3.40
2022,04,27,07,25,3.40
2022,04,27,07,26,3.40
2022,04,27,07,27,3.40
2022,04,27,07,28,3.40
2022,04,27,07,29,3.40
2022,04,27,07,30,3.40
2022,04,27,07,31,3.40
2022,04,27,07,32,3.40
2022,04,27,07,33,3.40
2022,04,27,07,34,3.40
2022,04,27,07,35,3.40
2022,04,27,07,36,3.40
2022,04,27,07,37,3.40
2022,04,27,07,38,3.40
2022,04,27,07,39,3.40
2022,04,27,07,40,3.50
2022,04,27,07,41,3.50
2022,04,27,07,42,3.50
2022,04,27,07,43,3.50
2022,04,27,07,44,3.50
2022,04,27,07,45,3.50
2022,04,27,07,46,3.60
2022,04,27,07,47,3.60
2022,04,27,07,48,3.60
2022,04,27,07,49,3.60
2022,04,27,07,50,3.60
2022,04,27,07,51,3.70
2022,04,27,07,52,3.70
2022,04,27,07,53,3.70
2022,04,27,07,54,3.70
2022,04,27,07,55,3.80
2022,04,27,07,56,3.80
2022,04,27,07,57,3.80
2022,04,27,07,58,3.90
2022,04,27,07,59,3.90
2022,04,27,08,00,3.90
2022,04,27,08,01,4.00
2022,04,27,08,02,4.00
2022,04,27,08,03,4.10
2022,04,27,08,04,4.10
2022,04,27,08,05,4.10
2022,04,27,08,06,4.10
2022,04,27,08,07,4.20
2022,04,27,08,08,4.20
2022,04,27,08,09,4.20
2022,04,27,08,10,4.20
2022,04,27,08,11,4.20
2022,04,27,08,12,4.20
2022,04,27,08,13,4.20
2022,04,27,08,14,4.20
2022,04,27,08,15,4.20
2022,04,27,08,16,4.30
2022,04,27,08,17,4.30
2022,04,27,08,18,4.30
2022,04,27,08,19,4.30
2022,04,27,08,20,4.30
2022,04,27,08,21,4.30
2022,04,27,08,22,4.30
2022,04,27,08,23,4.30
2022,04,27,08,24,4.30
2022,04,27,08,25,4.40
2022,04,27,08,26,4.40
2022,04,27,08,27,4.40
2022,04,27,08,28,4.40
2022,04,27,08,29,4.40
2022,04,27,08,30,4.40
2022,04,27,08,31,4.40
2022,04,27,08,32,4.40
2022,04,27,08,33,4.40
2022,04,27,08,34,4.40
2022,04,27,08,35,4.50
2022,04,27,08,36,4.50
2022,04,27,08,37,4.50
2022,04,27,08,38,4.60
2022,04,27,08,39,4.60
2022,04,27,08,40,4.60
2022,04,27,08,41,4.60
2022,04,27,08,42,4.60
2022,04,27,08,43,4.60
2022,04,27,08,44,4.60
2022,04,27,08,45,4.60
2022,04,27,08,46,4.60
2022,04,27,08,47,4.60
2022,04,27,08,48,4.60
2022,04,27,08,49,4.60
2022,04,27,08,50,4.60
2022,04,27,08,51,4.60
2022,04,27,08,52,4.60
2022,04,27,08,53,4.60
2022,04,27,08,54,4.60
2022,04,27,08,55,4.60
2022,04,27,08,56,4.60
2022,04,27,08,57,4.50
2022,04,27,08,58,4.50
2022,04,27,08,59,4.50
2022,04,27,09,00,4.50
2022,04,27,09,01,4.50
2022,04,27,09,02,4.40
2022,04,27,09,03,4.40
2022,04,27,09,04,4.40
2022,04,27,09,05,4.40
2022,04,27,09,06,4.50
2022,04,27,09,07,4.50
2022,04,27,09,08,4.50
2022,04,27,09,09,4.60
2022,04,27,09,10,4.60
2022,04,27,09,11,4.60
2022,04,27,09,12,4.60
2022,04,27,09,13,4.60
2022,04,27,09,14,4.70
2022,04,27,09,15,4.70
2022,04,27,09,16,4.70
2022,04,27,09,17,4.70
2022,04,27,09,18,4.70
2022,04,27,09,19,4.80
2022,04,27,09,20,4.80
2022,04,27,09,21,4.80
2022,04,27,09,22,4.80
2022,04,27,09,23,4.80
2022,04,27,09,24,4.80
2022,04,27,09,25,4.80
2022,04,27,09,26,4.80
2022,04,27,09,27,4.80
2022,04,27,09,28,4.90
2022,04,27,09,29,4.90
2022,04,27,09,30,5.00
2022,04,27,09,31,5.00
2022,04,27,09,32,5.10
2022,04,27,09,33,5.10
2022,04,27,09,34,5.10
2022,04,27,09,35,5.10
2022,04,27,09,36,5.10
2022,04,27,09,37,5.10
2022,04,27,09,38,5.10
2022,04,27,09,39,5.10
2022,04,27,09,40,5.10
2022,04,27,09,41,5.10
2022,04,27,09,42,5.10
2022,04,27,09,43,5.10
2022,04,27,09,44,5.10
2022,04,27,09,45,5.00
2022,04,27,09,46,5.10
2022,04,27,09,47,5.10
2022,04,27,09,48,5.10
2022,04,27,09,49,5.20
2022,04,27,09,50,5.20
2022,04,27,09,51,5.20
2022,04,27,09,52,5.20
2022,04,27,09,53,5.20
2022,04,27,09,54,5.30
2022,04,27,09,55,5.30
2022,04,27,09,56,5.30
2022,04,27,09,57,5.40
2022,04,27,09,58,5.40
2022,04,27,09,59,5.40
2022,04,27,10,00,5.40
2022,04,27,10,01,5.40
2022,04,27,10,02,5.40
2022,04,27,10,03,5.40
2022,04,27,10,04,5.40
2022,04,27,10,05,5.40
2022,04,27,10,06,5.40
2022,04,27,10,07,5.40
2022,04,27,10,08,5.40
2022,04,27,10,09,5.50
2022,04,27,10,10,5.50
2022,04,27,10,11,5.50
2022,04,27,10,12,5.50
2022,04,27,10,13,5.40
2022,04,27,10,14,5.40
2022,04,27,10,15,5.40
2022,04,27,10,16,5.40
2022,04,27,10,17,5.30
2022,04,27,10,18,5.30
2022,04,27,10,19,5.30
2022,04,27,10,20,5.30
2022,04,27,10,21,5.30
2022,04,27,10,22,5.30
2022,04,27,10,23,5.40
2022,04,27,10,24,5.40
2022,04,27,10,25,5.50
2022,04,27,10,26,5.50
2022,04,27,10,27,5.60
2022,04,27,10,28,5.60
2022,04,27,10,29,5.50
2022,04,27,10,30,5.60
2022,04,27,10,31,5.70
2022,04,27,10,32,5.70
2022,04,27,10,33,5.80
2022,04,27,10,34,5.80
2022,04,27,10,35,5.80
2022,04,27,10,36,6.00
2022,04,27,10,37,6.10
2022,04,27,10,38,6.10
2022,04,27,10,39,6.20
2022,04,27,10,40,6.20
2022,04,27,10,41,6.10
2022,04,27,10,42,6.00
2022,04,27,10,43,6.00
2022,04,27,10,44,5.90
2022,04,27,10,45,6.00
2022,04,27,10,46,6.00
2022,04,27,10,47,6.00
2022,04,27,10,48,6.10
2022,04,27,10,49,6.10
2022,04,27,10,50,6.10
2022,04,27,10,51,6.00
2022,04,27,10,52,5.90
2022,04,27,10,53,5.90
2022,04,27,10,54,5.80
2022,04,27,10,55,5.80
2022,04,27,10,56,5.90
2022,04,27,10,57,6.00
2022,04,27,10,58,6.00
2022,04,27,10,59,6.10
2022,04,27,11,00,6.20
2022,04,27,11,01,6.30
2022,04,27,11,02,6.40
2022,04,27,11,03,6.40
2022,04,27,11,04,6.50
2022,04,27,11,05,6.50
2022,04,27,11,06,6.60
2022,04,27,11,07,6.80
2022,04,27,11,08,6.80
2022,04,27,11,09,6.90
2022,04,27,11,10,7.00
2022,04,27,11,11,7.00
2022,04,27,11,12,6.90
2022,04,27,11,13,6.90
2022,04,27,11,14,6.80
2022,04,27,11,15,6.80
2022,04,27,11,16,6.80
2022,04,27,11,17,6.70
2022,04,27,11,18,6.70
2022,04,27,11,19,6.50
2022,04,27,11,20,6.40
2022,04,27,11,21,6.40
2022,04,27,11,22,6.40
2022,04,27,11,23,6.40
2022,04,27,11,24,6.40
2022,04,27,11,25,6.40
2022,04,27,11,26,6.40
2022,04,27,11,27,6.50
2022,04,27,11,28,6.50
2022,04,27,11,29,6.60
2022,04,27,11,30,6.60
2022,04,27,11,31,6.60
2022,04,27,11,32,6.70
2022,04,27,11,33,6.80
2022,04,27,11,34,6.80
2022,04,27,11,35,6.80
2022,04,27,11,36,6.80
2022,04,27,11,37,6.80
2022,04,27,11,38,6.90
2022,04,27,11,39,6.90
2022,04,27,11,40,7.00
2022,04,27,11,41,7.10
2022,04,27,11,42,7.10
2022,04,27,11,43,7.10
2022,04,27,11,44,7.10
2022,04,27,11,45,7.10
2022,04,27,11,46,7.10
2022,04,27,11,47,7.00
2022,04,27,11,48,6.90
2022,04,27,11,49,6.80
2022,04,27,11,50,6.90
2022,04,27,11,51,6.90
2022,04,27,11,52,6.90
2022,04,27,11,53,7.00
2022,04,27,11,54,7.10
2022,04,27,11,55,7.10
2022,04,27,11,56,7.20
2022,04,27,11,57,7.30
2022,04,27,11,58,7.50
2022,04,27,11,59,7.50
2022,04,27,12,00,7.60
2022,04,27,12,01,7.50
2022,04,27,12,02,7.50
2022,04,27,12,03,7.40
2022,04,27,12,04,7.40
2022,04,27,12,05,7.40
2022,04,27,12,06,7.50
2022,04,27,12,07,7.60
2022,04,27,12,08,7.60
2022,04,27,12,09,7.70
2022,04,27,12,10,7.70
2022,04,27,12,11,7.70
2022,04,27,12,12,7.70
2022,04,27,12,13,7.70
2022,04,27,12,14,7.80
2022,04,27,12,15,7.80
2022,04,27,12,16,7.80
2022,04,27,12,17,7.80
2022,04,27,12,18,7.90
2022,04,27,12,19,7.90
2022,04,27,12,20,8.00
2022,04,27,12,21,8.10
2022,04,27,12,22,8.10
2022,04,27,12,23,8.10
2022,04,27,12,24,8.20
2022,04,27,12,25,8.20
2022,04,27,12,26,8.20
2022,04,27,12,27,8.10
2022,04,27,12,28,8.10
2022,04,27,12,29,8.00
2022,04,27,12,30,7.90
2022,04,27,12,31,7.90
2022,04,27,12,32,7.90
2022,04,27,12,33,7.90
2022,04,27,12,34,7.90
2022,04,27,12,35,7.90
2022,04,27,12,36,7.90
2022,04,27,12,37,7.90
2022,04,27,12,38,7.80
2022,04,27,12,39,7.80
2022,04,27,12,40,7.80
2022,04,27,12,41,7.80
2022,04,27,12,42,7.80
2022,04,27,12,43,7.80
2022,04,27,12,44,7.80
2022,04,27,12,45,7.90
2022,04,27,12,46,8.00
2022,04,27,12,47,8.00
2022,04,27,12,48,8.10
2022,04,27,12,49,8.20
2022,04,27,12,50,8.30
2022,04,27,12,51,8.40
2022,04,27,12,52,8.50
2022,04,27,12,53,8.50
2022,04,27,12,54,8.50
2022,04,27,12,55,8.50
2022,04,27,12,56,8.60
2022,04,27,12,57,8.60
2022,04,27,12,58,8.60
2022,04,27,12,59,8.60
2022,04,27,13,00,8.60
2022,04,27,13,01,8.70
2022,04,27,13,02,8.70
2022,04,27,13,03,8.70
2022,04,27,13,04,8.80
2022,04,27,13,05,8.80
2022,04,27,13,06,8.70
2022,04,27,13,07,8.80
2022,04,27,13,08,8.80
2022,04,27,13,09,8.80
2022,04,27,13,10,8.80
2022,04,27,13,11,8.90
2022,04,27,13,12,8.90
2022,04,27,13,13,8.90
2022,04,27,13,14,8.90
2022,04,27,13,15,8.90
2022,04,27,13,16,9.00
2022,04,27,13,17,9.00
2022,04,27,13,18,9.10
2022,04,27,13,19,9.10
2022,04,27,13,20,9.20
2022,04,27,13,21,9.20
2022,04,27,13,22,9.30
2022,04,27,13,23,9.40
2022,04,27,13,24,9.60
2022,04,27,13,25,9.70
2022,04,27,13,26,9.80
2022,04,27,13,27,9.90
2022,04,27,13,28,10.10
2022,04,27,13,29,10.20
2022,04,27,13,30,10.40
2022,04,27,13,31,10.50
2022,04,27,13,32,10.50
2022,04,27,13,33,10.60
2022,04,27,13,34,10.70
2022,04,27,13,35,10.60
2022,04,27,13,36,10.50
2022,04,27,13,37,10.40
2022,04,27,13,38,10.40
2022,04,27,13,39,10.40
2022,04,27,13,40,10.40
2022,04,27,13,41,10.40
2022,04,27,13,42,10.30
2022,04,27,13,43,10.30
2022,04,27,13,44,10.20
2022,04,27,13,45,10.20
2022,04,27,13,46,10.20
2022,04,27,13,47,10.30
2022,04,27,13,48,10.30
2022,04,27,13,49,10.30
2022,04,27,13,50,10.30
2022,04,27,13,51,10.40
2022,04,27,13,52,10.40
2022,04,27,13,53,10.50
2022,04,27,13,54,10.60
2022,04,27,13,55,10.70
2022,04,27,13,56,10.80
2022,04,27,13,57,10.90
2022,04,27,13,58,11.00
2022,04,27,13,59,11.00
2022,04,27,14,00,11.10
2022,04,27,14,01,11.10
2022,04,27,14,02,11.10
2022,04,27,14,03,11.10
2022,04,27,14,04,11.00
2022,04,27,14,05,11.00
2022,04,27,14,06,11.00
2022,04,27,14,07,11.00
2022,04,27,14,08,10.90
2022,04,27,14,09,10.80
2022,04,27,14,10,10.80
2022,04,27,14,11,10.70
2022,04,27,14,12,10.60
2022,04,27,14,13,10.60
2022,04,27,14,14,10.60
2022,04,27,14,15,10.60
2022,04,27,14,16,10.60
2022,04,27,14,17,10.60
2022,04,27,14,18,10.50
2022,04,27,14,19,10.40
2022,04,27,14,20,10.40
2022,04,27,14,21,10.30
2022,04,27,14,22,10.10
2022,04,27,14,23,10.10
2022,04,27,14,24,10.10
2022,04,27,14,25,10.00
2022,04,27,14,26,10.00
2022,04,27,14,27,9.90
2022,04,27,14,28,9.90
2022,04,27,14,29,10.00
2022,04,27,14,30,10.00
2022,04,27,14,31,10.00
2022,04,27,14,32,10.00
2022,04,27,14,33,10.10
2022,04,27,14,34,10.10
2022,04,27,14,35,10.20
2022,04,27,14,36,10.30
2022,04,27,14,37,10.30
2022,04,27,14,38,10.40
2022,04,27,14,39,10.60
2022,04,27,14,40,10.70
2022,04,27,14,41,10.90
2022,04,27,14,42,11.00
2022,04,27,14,43,11.10
2022,04,27,14,44,11.00
2022,04,27,14,45,11.00
2022,04,27,14,46,10.90
2022,04,27,14,47,10.80
2022,04,27,14,48,10.90
2022,04,27,14,49,10.90
2022,04,27,14,50,11.00
2022,04,27,14,51,11.00
2022,04,27,14,52,11.00
2022,04,27,14,53,11.00
2022,04,27,14,54,11.00
2022,04,27,14,55,11.00
2022,04,27,14,56,11.10
2022,04,27,14,57,11.20
2022,04,27,14,58,11.40
2022,04,27,14,59,11.50
2022,04,27,15,00,11.60
2022,04,27,15,01,11.70
2022,04,27,15,02,11.70
2022,04,27,15,03,11.80
2022,04,27,15,04,11.80
2022,04,27,15,05,11.80
2022,04,27,15,06,11.80
2022,04,27,15,07,11.80
2022,04,27,15,08,11.80
2022,04,27,15,09,11.80
2022,04,27,15,10,11.80
2022,04,27,15,11,11.90
2022,04,27,15,12,12.00
2022,04,27,15,13,12.10
2022,04,27,15,14,12.20
2022,04,27,15,15,12.20
2022,04,27,15,16,12.20
2022,04,27,15,17,12.20
2022,04,27,15,18,12.20
2022,04,27,15,19,12.10
2022,04,27,15,20,12.10
2022,04,27,15,21,12.20
2022,04,27,15,22,12.20
2022,04,27,15,23,12.30
2022,04,27,15,24,12.30
2022,04,27,15,25,12.30
2022,04,27,15,26,12.20
2022,04,27,15,27,12.10
2022,04,27,15,28,12.10
2022,04,27,15,29,12.00
2022,04,27,15,30,11.90
2022,04,27,15,31,11.80
2022,04,27,15,32,11.70
2022,04,27,15,33,11.70
2022,04,27,15,34,11.60
2022,04,27,15,35,11.70
2022,04,27,15,36,11.70
2022,04,27,15,37,11.70
2022,04,27,15,38,11.70
2022,04,27,15,39,11.70
2022,04,27,15,40,11.70
2022,04,27,15,41,11.70
2022,04,27,15,42,11.60
2022,04,27,15,43,11.60
2022,04,27,15,44,11.60
2022,04,27,15,45,11.70
2022,04,27,15,46,11.80
2022,04,27,15,47,11.80
2022,04,27,15,48,11.70
2022,04,27,15,49,11.70
2022,04,27,15,50,11.70
2022,04,27,15,51,11.70
2022,04,27,15,52,11.70
2022,04,27,15,53,11.70
2022,04,27,15,54,11.70
2022,04,27,15,55,11.70
2022,04,27,15,56,11.70
2022,04,27,15,57,11.80
2022,04,27,15,58,11.80
2022,04,27,15,59,11.80
2022,04,27,16,00,11.80
2022,04,27,16,01,11.80
2022,04,27,16,02,11.80
2022,04,27,16,03,11.80
2022,04,27,16,04,11.90
2022,04,27,16,05,11.90
2022,04,27,16,06,11.90
2022,04,27,16,07,11.90
2022,04,27,16,08,12.00
2022,04,27,16,09,12.10
2022,04,27,16,10,12.10
2022,04,27,16,11,12.20
2022,04,27,16,12,12.10
2022,04,27,16,13,12.10
2022,04,27,16,14,12.00
2022,04,27,16,15,11.90
2022,04,27,16,16,11.80
2022,04,27,16,17,11.70
2022,04,27,16,18,11.70
2022,04,27,16,19,11.70
2022,04,27,16,20,11.70
2022,04,27,16,21,11.80
2022,04,27,16,22,11.70
2022,04,27,16,23,11.70
2022,04,27,16,24,11.80
2022,04,27,16,25,11.70
2022,04,27,16,26,11.80
2022,04,27,16,27,11.80
2022,04,27,16,28,11.80
2022,04,27,16,29,11.80
2022,04,27,16,30,11.80
2022,04,27,16,31,11.80
2022,04,27,16,32,11.80
2022,04,27,16,33,11.70
2022,04,27,16,34,11.70
2022,04,27,16,35,11.70
2022,04,27,16,36,11.70
2022,04,27,16,37,11.80
2022,04,27,16,38,11.80
2022,04,27,16,39,11.80
2022,04,27,16,40,11.80
2022,04,27,16,41,11.80
2022,04,27,16,42,11.80
2022,04,27,16,43,11.70
2022,04,27,16,44,11.80
2022,04,27,16,45,11.80
2022,04,27,16,46,11.80
2022,04,27,16,47,11.80
2022,04,27,16,48,11.90
2022,04,27,16,49,12.00
2022,04,27,16,50,12.10
2022,04,27,16,51,12.20
2022,04,27,16,52,12.20
2022,04,27,16,53,12.10
2022,04,27,16,54,12.00
2022,04,27,16,55,11.90
2022,04,27,16,56,11.80
2022,04,27,16,57,11.80
2022,04,27,16,58,11.80
2022,04,27,16,59,11.80
2022,04,27,17,00,11.80
2022,04,27,17,01,11.70
2022,04,27,17,02,11.60
2022,04,27,17,03,11.50
2022,04,27,17,04,11.40
2022,04,27,17,05,11.30
2022,04,27,17,06,11.30
2022,04,27,17,07,11.20
2022,04,27,17,08,11.20
2022,04,27,17,09,11.20
2022,04,27,17,10,11.20
2022,04,27,17,11,11.30
2022,04,27,17,12,11.30
2022,04,27,17,13,11.30
2022,04,27,17,14,11.30
2022,04,27,17,15,11.30
2022,04,27,17,16,11.40
2022,04,27,17,17,11.40
2022,04,27,17,18,11.40
2022,04,27,17,19,11.50
2022,04,27,17,20,11.60
2022,04,27,17,21,11.60
2022,04,27,17,22,11.60
2022,04,27,17,23,11.60
2022,04,27,17,24,11.70
2022,04,27,17,25,11.80
2022,04,27,17,26,12.00
2022,04,27,17,27,12.20
2022,04,27,17,28,12.40
2022,04,27,17,29,12.70
2022,04,27,17,30,12.80
2022,04,27,17,31,13.00
2022,04,27,17,32,13.10
2022,04,27,17,33,13.10
2022,04,27,17,34,13.00
2022,04,27,17,35,12.90
2022,04,27,17,36,12.80
2022,04,27,17,37,12.60
2022,04,27,17,38,12.50
2022,04,27,17,39,12.30
2022,04,27,17,40,12.20
2022,04,27,17,41,12.10
2022,04,27,17,42,12.00
2022,04,27,17,43,12.00
2022,04,27,17,44,11.90
2022,04,27,17,45,11.90
2022,04,27,17,46,11.90
2022,04,27,17,47,11.80
2022,04,27,17,48,11.80
2022,04,27,17,49,11.80
2022,04,27,17,50,11.70
2022,04,27,17,51,11.60
2022,04,27,17,52,11.60
2022,04,27,17,53,11.50
2022,04,27,17,54,11.50